Helicity
44 40 38 35 32 31 29 29 29 36 45 51 51 49 62 66 115 -2 25 11 6 -19 27 59 73 69 82 23 39 69 -4 -13 11 41 5 39 -0 31 -7 31 -5 34 27 100 134
45 38 33 32 29 28 26 26 29 33 47 55 55 58 66 67 60 19 22 8 -4 -5 50 59 29 21 43 25 5 58 16 19 12 8 10 20 -15 9 101 40 56 91 53 149 102
43 36 30 26 23 25 25 26 30 35 45 53 60 68 69 82 46 40 99 -43 -28 2 54 55 58 42 43 19 -2 -4 -0 -7 -9 42 -3 -6 37 24 20 63 27 101 159 127 84
41 37 29 23 24 26 28 27 29 37 46 55 62 75 78 56 44 49 57 9 -10 7 49 53 50 46 45 -8 2 4 -7 -14 -1 4 5 4 -2 20 -20 26 6 51 146 123 75
40 42 41 33 31 30 32 33 30 41 50 59 62 68 56 23 18 5 -4 -20 -10 10 32 33 33 -0 42 -22 2 -0 -23 5 -0 38 19 -2 24 2 11 25 42 101 127 111 54
47 49 49 44 37 35 34 37 37 43 52 59 62 67 34 37 15 9 14 -25 -1 -1 10 -7 17 17 27 5 3 29 -5 24 -3 -6 16 4 -5 16 14 35 69 110 115 79 48
58 52 51 50 47 44 40 41 46 50 54 54 49 41 39 28 15 13 -0 -7 -9 -10 10 -15 -1 22 20 28 41 9 20 26 25 -7 -4 42 48 27 37 35 68 100 87 86 80
63 55 54 54 56 54 50 51 52 50 49 42 30 39 54 24 14 18 9 -17 -35 -32 11 20 -43 -4 8 10 26 25 30 41 83 -11 27 39 16 46 33 34 65 56 99 123 123
70 61 59 59 59 56 55 57 53 35 17 7 13 24 11 4 1 -2 21 6 -12 -46 -70 -42 -22 10 25 20 50 52 41 35 56 63 -8 5 13 44 43 38 45 60 85 122 134
65 63 62 60 55 54 50 25 6 -8 -7 15 33 14 1 4 32 20 20 20 19 17 16 -7 -9 20 30 22 37 45 52 33 8 43 -10 19 13 -0 55 17 12 59 63 107 146
65 57 59 57 47 36 54 -0 9 2 20 37 34 55 26 53 28 10 16 9 7 10 16 50 12 35 23 12 1 53 38 7 2 15 4 12 18 15 12 66 18 16 54 84 58
51 49 54 52 34 22 -16 -5 35 44 29 19 18 32 28 22 23 21 16 1 14 12 19 2 35 7 6 21 37 5 12 8 10 59 -6 29 15 16 26 3 35 33 31 44 64
52 48 49 43 26 -11 -31 2 24 38 9 54 21 15 25 3 16 45 20 6 10 15 18 -9 6 82 -29 13 16 11 6 11 26 34 13 59 40 28 51 41 2 18 31 45 48
45 41 50 41 -7 7 -2 5 -5 15 3 73 22 27 35 -11 12 8 34 -3 8 -0 8 10 -13 49 40 33 3 9 8 42 16 -12 30 40 29 31 23 16 21 7 31 41 41
36 43 47 -0 34 -3 43 8 4 -10 14 53 75 61 13 -9 93 43 35 10 -17 17 33 3 46 31 37 11 7 14 42 21 -8 -13 2 9 -9 -7 43 22 30 31 20 40 49
73 47 44 4 8 6 10 10 -6 12 50 47 56 29 43 6 13 83 41 1 8 -10 11 -9 25 32 3 23 8 7 13 6 29 34 11 -6 9 -35 84 39 18 18 37 26 48
100 63 12 28 58 26 8 -2 20 17 63 65 30 48 13 40 25 45 46 48 10 16 62 44 57 37 31 6 23 17 4 -7 22 34 -11 80 8 -3 29 34 11 17 29 47 48
141 59 28 -25 29 25 9 3 49 71 23 86 22 18 6 41 6 26 39 27 25 -35 4 -8 33 32 74 7 -3 37 10 15 12 -1 43 38 7 9 17 37 1 23 18 49 40
185 13 -3 24 -2 22 23 10 27 48 82 16 28 -6 22 16 -5 32 8 7 12 41 15 26 16 61 8 -1 14 -20 10 8 35 23 8 -8 29 -19 7 -9 48 30 23 51 29
32 -3 33 19 5 30 42 77 81 133 40 -1 -33 21 -2 43 33 25 26 31 -5 22 6 13 13 21 63 8 4 -5 23 1 21 -2 18 5 35 23 29 51 32 19 26 33 19
4 -4 37 9 1 36 31 53 66 39 68 41 25 6 -19 43 15 25 -2 95 63 32 16 -3 -8 -8 42 30 -8 56 11 10 38 32 33 26 78 42 47 21 15 47 10 38 19
40 20 28 -19 22 20 24 67 80 31 33 41 49 50 45 63 15 -1 27 111 87 60 20 18 17 4 -8 6 42 29 33 4 36 27 6 20 26 26 52 19 16 25 35 15 31
55 34 13 -1 52 1 56 33 60 39 56 53 43 50 52 56 58 38 59 101 106 28 102 67 23 17 21 42 41 73 13 15 16 29 36 30 11 22 39 12 -10 47 54 32 12
51 9 19 21 62 119 41 49 34 51 53 66 100 38 45 24 28 52 33 87 85 99 137 85 38 20 23 30 37 15 5 20 41 39 33 20 28 31 27 36 18 32 94 68 36
44 44 63 22 21 54 59 81 40 32 51 45 40 90 89 76 18 19 66 83 24 116 61 73 61 38 27 37 41 40 34 20 32 32 40 35 47 30 33 52 108 78 130 57 84
62 59 35 43 30 25 41 35 44 67 63 68 95 82 67 72 154 207 238 119 108 44 83 40 101 68 72 35 37 48 29 22 25 32 40 33 30 29 28 92 43 70 84 117 115
52 39 71 22 27 20 79 86 95 64 54 121 82 60 71 205 117 64 70 66 61 72 83 85 93 104 95 39 53 81 43 36 32 33 42 33 43 88 109 74 156 153 106 149 150
Wind_Speed
42 43 45 47 47 46 45 44 46 45 44 43 42 42 42 43 44 42 44 34 34 39 38 34 33 31 30 28 28 28 14 35 36 38 37 32 25 32 25 28 33 38 40 33 35
43 45 46 48 48 48 46 45 44 44 43 43 42 41 41 42 42 47 32 29 43 45 42 36 32 30 30 31 32 24 36 37 31 35 37 35 22 19 29 19 32 35 39 33 37
45 46 48 49 49 48 46 44 42 42 42 42 41 41 40 39 39 9 29 49 50 49 44 37 35 31 31 30 32 33 37 37 30 28 32 28 22 17 8 26 34 32 34 33 36
47 48 49 50 48 46 44 43 41 41 41 41 41 40 40 38 27 29 32 49 51 50 44 40 36 34 29 28 31 28 30 29 16 22 21 23 32 18 28 43 44 40 36 35 34
48 49 48 47 46 44 42 40 40 40 40 40 40 39 37 40 32 25 38 52 54 49 46 41 37 33 31 27 24 25 24 20 26 22 26 18 17 19 18 27 35 37 36 36 34
46 47 46 45 44 43 42 39 39 39 39 40 39 38 39 38 32 33 41 50 54 50 44 40 36 34 29 27 26 34 21 19 24 28 17 21 17 22 26 30 29 31 33 34 32
42 44 44 43 43 42 41 40 38 38 38 39 39 39 43 38 33 33 43 50 51 49 42 39 38 35 31 25 30 28 22 18 27 28 14 24 22 27 31 27 27 28 30 32 33
42 44 44 43 42 40 40 39 38 37 37 37 38 39 37 31 36 39 43 49 48 46 42 39 37 36 31 32 26 24 21 21 27 19 33 22 23 33 24 24 25 28 29 31 33
43 44 44 43 42 39 38 37 36 35 36 38 35 38 31 31 44 41 46 35 36 37 35 31 32 32 33 19 23 18 31 22 28 28 30 23 24 21 22 23 25 26 27 30 32
48 47 46 45 44 41 38 36 33 32 32 38 39 38 41 38 10 11 24 17 25 24 19 20 23 29 25 27 40 46 30 35 44 35 34 35 29 25 18 24 24 26 28 31 32
54 53 51 49 47 44 40 28 27 25 36 40 15 33 21 18 14 18 16 19 18 16 15 17 27 30 29 36 48 49 52 44 36 45 48 41 38 30 21 22 26 29 30 32 33
58 57 55 52 48 44 34 32 35 35 36 24 33 37 29 12 12 15 19 15 12 10 12 18 23 35 37 47 53 53 54 44 29 40 48 50 46 37 31 30 28 30 31 34 34
59 59 57 54 47 33 27 38 36 39 41 16 11 13 12 13 13 15 18 19 10 7 7 18 23 34 26 2 7 40 55 54 58 58 50 42 38 40 17 23 31 31 31 34 36
62 60 58 51 38 29 30 27 31 35 38 14 13 12 9 11 10 14 11 7 14 19 8 12 13 18 30 30 24 50 36 49 54 54 55 54 57 33 19 16 21 30 30 32 35
64 62 58 45 43 32 30 32 33 26 38 14 16 19 11 10 22 7 6 5 15 17 27 20 21 18 21 37 38 52 52 45 48 56 60 56 49 34 25 22 23 24 30 31 33
66 63 54 34 29 39 34 35 29 31 39 21 20 13 8 6 18 19 7 8 30 23 22 20 38 29 31 35 18 33 47 30 1 4 60 49 38 36 11 19 23 24 22 26 31
67 60 37 39 30 29 32 26 32 41 26 25 16 10 6 8 9 14 8 4 7 16 9 8 4 4 19 26 26 7 11 54 20 8 34 24 39 36 27 25 27 30 13 19 27
63 52 20 17 34 32 29 30 42 34 29 27 24 11 5 7 12 11 12 6 4 18 49 49 16 20 6 18 39 10 59 58 41 44 35 30 38 32 32 30 41 37 10 19 25
54 25 19 22 15 32 34 38 38 31 32 33 20 17 8 14 27 10 13 10 9 11 51 40 28 25 32 40 8 16 30 59 66 64 63 55 34 49 31 25 35 33 16 17 23
40 18 22 18 14 35 43 57 35 37 38 29 34 17 14 3 12 13 9 22 22 21 23 42 44 21 16 31 26 38 59 44 27 43 48 50 36 33 23 34 43 33 12 12 19
30 19 21 15 20 41 49 34 29 28 36 33 31 31 29 22 14 9 36 22 30 29 34 43 25 28 24 14 25 19 14 24 61 55 54 47 31 36 29 32 40 26 21 9 16
39 28 14 15 42 48 50 35 36 38 33 35 38 43 43 36 39 29 30 29 29 41 42 32 56 51 37 48 29 51 57 42 24 28 45 53 69 28 26 30 34 31 21 21 8
34 27 18 34 42 34 33 33 39 40 35 36 37 34 32 43 38 37 38 32 38 39 40 44 33 50 34 13 7 37 54 48 63 72 69 71 66 37 31 33 33 27 25 21 19
36 22 23 46 46 41 33 32 29 34 33 38 41 39 46 42 23 38 32 31 37 38 42 40 46 57 70 70 49 50 55 55 61 64 66 70 76 74 58 43 36 25 21 26 24
33 32 32 37 41 41 38 34 40 32 34 35 29 39 41 41 38 36 33 42 40 27 40 38 58 63 70 77 83 80 72 70 71 75 79 84 84 75 67 64 47 38 30 33 30
35 35 34 35 34 39 28 32 40 28 39 29 41 37 41 42 40 48 48 43 52 50 51 54 70 73 78 76 80 87 83 77 77 72 75 83 90 83 84 40 58 47 36 34 37
33 31 37 30 35 39 30 30 31 36 30 35 40 44 38 41 45 52 49 49 47 52 58 62 68 71 80 76 84 86 76 80 84 77 75 82 74 67 50 46 46 43 36 35 35
Wind_Direction
300 298 298 297 294 289 283 278 281 276 268 265 263 265 261 263 253 210 198 237 221 181 190 190 179 178 172 153 175 171 9 55 31 10 356 51 85 55 65 67 45 13 353 81 99
303 304 304 304 303 298 287 280 277 275 265 263 262 263 262 266 240 212 247 288 215 189 184 190 187 185 174 142 107 209 22 13 346 353 343 45 101 109 38 168 18 47 40 73 110
311 310 310 308 306 297 285 279 272 269 262 260 260 260 260 262 223 229 281 200 187 186 195 204 197 188 175 146 89 78 29 15 70 278 52 73 88 112 254 17 62 55 54 92 117
319 316 313 309 300 288 278 273 268 263 259 257 258 257 257 229 327 296 264 209 188 182 194 188 187 181 179 148 78 117 77 68 153 153 133 86 42 172 244 349 9 38 73 101 117
320 315 307 300 292 283 273 263 262 256 252 252 255 256 248 194 250 304 234 190 176 180 183 184 194 194 191 153 153 115 91 159 231 174 45 104 119 135 161 62 49 58 81 100 117
314 309 302 295 289 281 270 258 251 246 242 243 248 251 225 211 261 256 217 154 169 170 173 181 198 235 199 172 165 357 163 164 76 49 104 222 157 108 69 57 65 78 90 101 113
306 304 300 294 288 281 271 260 246 238 234 234 238 241 222 248 244 234 204 158 161 168 179 178 200 194 258 162 5 187 170 136 54 64 102 245 162 94 33 63 77 99 106 100 102
305 304 299 292 287 279 269 259 245 233 224 217 218 218 243 254 231 217 204 164 165 175 194 233 187 197 196 219 183 163 171 159 42 97 26 217 73 47 80 90 93 117 115 111 108
303 302 299 292 284 274 263 253 240 226 206 196 229 213 261 256 201 213 194 125 135 153 164 193 178 184 203 139 178 131 203 343 13 38 226 202 221 83 96 122 131 119 119 127 119
304 301 298 292 285 275 260 239 262 262 235 192 225 239 231 229 34 19 266 292 110 123 125 142 157 181 166 179 209 299 304 326 248 329 256 241 224 217 112 144 150 125 134 138 133
305 303 299 294 288 280 271 334 342 354 162 245 326 279 337 335 356 92 77 89 102 113 133 131 170 179 178 194 238 297 265 234 223 296 278 246 240 228 178 132 157 156 142 142 149
306 304 301 297 290 280 297 301 307 294 282 151 284 273 297 357 40 95 108 92 55 104 125 149 173 198 199 256 279 274 251 230 212 325 257 259 251 235 211 192 166 160 159 154 148
302 303 303 299 293 319 321 284 299 288 273 351 3 110 43 87 90 120 127 138 27 89 110 175 293 329 187 45 163 217 243 255 280 288 251 232 238 256 124 134 164 165 160 156 156
302 300 300 292 310 331 324 331 315 306 287 348 3 355 15 52 18 356 123 40 345 335 338 320 313 332 320 314 303 224 311 299 295 292 264 286 272 226 21 70 132 165 158 156 157
302 299 297 300 290 310 320 314 310 322 289 357 354 355 11 82 4 30 31 337 330 336 328 333 335 325 313 304 306 289 294 305 301 292 267 258 289 328 5 38 68 118 155 154 155
300 299 295 324 312 288 299 302 310 296 291 337 346 2 50 137 349 1 25 340 325 324 323 314 300 321 316 317 314 301 298 310 245 163 260 255 303 315 14 354 13 38 90 144 151
297 293 318 301 321 302 295 309 293 281 318 324 345 19 63 19 7 11 38 56 20 360 352 348 251 255 324 313 323 349 341 272 322 2 321 341 304 289 333 338 332 342 79 125 141
293 287 347 346 303 282 286 289 279 299 313 325 327 1 358 30 350 3 4 18 68 333 303 303 341 346 23 315 285 339 246 259 297 282 311 331 306 316 316 317 308 324 55 111 133
282 340 7 350 327 272 270 272 290 300 307 309 335 319 333 326 320 351 356 8 67 81 253 305 335 346 317 295 344 311 300 258 258 264 269 275 313 299 310 321 325 336 25 100 122
298 350 349 352 343 262 260 250 295 292 299 309 296 332 324 345 334 346 6 338 326 342 334 290 286 345 1 322 313 227 243 294 291 294 291 284 309 313 328 317 318 326 29 91 120
287 358 348 351 299 254 247 285 299 305 291 299 313 319 309 327 332 356 306 344 321 333 312 298 324 327 345 2 335 352 340 277 258 280 289 296 323 330 329 326 321 338 336 79 128
266 314 359 322 238 242 253 280 279 280 295 297 295 286 277 302 294 306 312 320 332 302 302 323 283 297 311 300 323 292 284 296 303 305 293 289 272 14 3 330 333 339 334 324 128
277 313 312 260 241 271 286 284 274 278 293 291 291 296 312 286 299 299 309 331 319 319 317 315 319 304 314 298 261 309 297 294 283 277 278 280 277 326 341 331 326 338 338 322 305
263 305 304 241 251 253 274 280 296 294 298 290 286 299 285 295 321 305 319 333 324 318 317 317 307 298 287 283 304 302 303 296 291 286 286 280 278 277 298 313 318 327 333 318 312
271 280 273 260 256 261 270 291 270 297 300 299 315 299 306 305 311 314 318 317 324 328 319 313 300 299 294 291 285 290 292 293 289 286 283 279 278 273 283 286 308 298 318 305 305
264 268 269 282 285 267 308 297 278 318 295 323 299 318 317 313 314 310 316 318 314 312 315 311 301 299 294 293 290 285 287 291 289 290 288 285 280 280 273 313 283 289 310 299 297
291 297 265 303 286 273 304 307 309 308 329 320 319 318 323 325 319 313 314 313 313 311 309 307 304 301 295 296 293 287 290 290 288 286 287 285 293 291 288 292 289 290 301 302 298